Location: The Jewett Observatory
(46.7288°N, 117.1525°W)
Time: 14:56:15
(UTC-07:00)

Meteor 1-28 Rocket - Visible Passes

Search period start: 07 July 2015 00:00
Search period end: 17 July 2015 00:00
Orbit: 511 x 528 km, 97.2° (Epoch: 07 July)

Date Brightness Start Highest point End Pass type
(mag) Time Alt. Az. Time Alt. Az. Time Alt. Az.
11 Jul 6.5 21:56:01 10° NNW 21:58:00 14° WNW 21:59:52 10° W visible
12 Jul 6.2 21:41:51 10° NNW 21:44:33 18° WNW 21:47:09 10° WSW visible
13 Jul 5.9 21:27:54 10° NNW 21:31:04 24° WNW 21:34:08 10° WSW visible
14 Jul 5.3 21:14:04 10° N 21:17:33 33° WNW 21:20:58 10° SW visible
